Home   Weather   Boston   Past weeks

Flag for USA Past Weather in Boston, Massachusetts, USA — Yesterday and Last 2 Weeks

Now
37 °F

Cloudy.


Feels Like: 26 °F
Forecast: 36 / 39 °F
Wind: 23 mph from Northeast

Location: Logan International Airport

Current Time: Jan 23, 2017 at 2:10:23 pm

Latest Report: Jan 23, 2017 at 12:54 pm


Visibility: 7 mi

Pressure: 29.98 "Hg

Humidity: 86%

Dew Point: 33 °F

Location of BostonLocation

Past Weather in Boston — Graph

°F

Boston Temperature Yesterday

Maximum temperature yesterday: 47 °F (at 11:54 am)
Minimum temperature yesterday: 39 °F (at 4:54 am)
Average temperature yesterday: 42 °F

High & Low Weather Summary for the Past Weeks

 TemperatureHumidityPressure
High60 °F (Jan 12, 12:54 pm)100% (Jan 10, 10:54 pm)30.71 "Hg (Jan 10, 10:54 pm)
Low11 °F (Jan 9, 4:54 am)23% (Jan 13, 6:54 pm)29.72 "Hg (Jan 21, 2:54 pm)
Average36 °F73%30.17 "Hg
* Reported Jan 8 12:54 pm — Jan 23 12:54 pm, Boston, Weather by CustomWeather, © 2017

Note: Actual official high and low records may vary slightly from our data, if they occured in-between our weather recording intervals... More about our weather records

Advertising

Boston Weather History for the Previous 24 Hours

Scroll right to see more
 ConditionsComfort  
Time TempWeatherWind HumidityBarometerVisibility
12:54 pm
Mon, Jan 23
37 °FCloudy.23 mph86%29.98 "Hg7 mi
12:39 pm37 °FMore clouds than sun.23 mph89%30.00 "Hg10 mi
11:54 am36 °FLight rain. Fog.25 mph92%30.01 "Hg6 mi
11:10 am37 °FMore clouds than sun.28 mph89%30.03 "Hg9 mi
10:54 am36 °FLight snow. Fog.21 mph92%30.03 "Hg4 mi
9:54 am36 °FLight snow. Mostly cloudy.21 mph92%30.07 "Hg10 mi
9:30 am35 °FLight rain. Fog.25 mph88%30.06 "Hg4 mi
7:54 am38 °FMostly cloudy.24 mph79%30.03 "Hg10 mi
6:54 am36 °FLight rain. Mostly cloudy.22 mph89%30.01 "Hg7 mi
6:32 am36 °FMostly cloudy.21 mph92%30.02 "Hg9 mi
6:12 am36 °FLight rain. Fog.22 mph89%30.03 "Hg4 mi
5:54 am36 °FLight rain. Overcast.21 mph92%30.02 "Hg10 mi
5:33 am36 °FLight rain. Fog.18 mph85%30.02 "Hg6 mi
4:54 am37 °FLight rain. Mostly cloudy.26 mph86%29.97 "Hg10 mi
4:37 am38 °FLight rain. Mostly cloudy.26 mph83%29.98 "Hg8 mi
3:54 am38 °FOvercast.23 mph76%30.00 "Hg10 mi
3:28 am38 °FMostly cloudy.25 mph79%30.00 "Hg10 mi
3:09 am38 °FMostly cloudy.24 mph79%30.01 "Hg10 mi
3:01 am39 °FOvercast.25 mph76%30.01 "Hg10 mi
2:39 am39 °FMostly cloudy.21 mph79%30.00 "Hg10 mi
1:54 am39 °FMostly cloudy.22 mph86%29.98 "Hg10 mi
1:19 am39 °FLight rain. Overcast.23 mph89%29.98 "Hg7 mi
12:54 am40 °FMostly cloudy.21 mph83%29.97 "Hg10 mi
11:54 pm
Sun, Jan 22
40 °FMostly cloudy.20 mph83%29.97 "Hg10 mi
11:38 pm40 °FLight rain. Mostly cloudy.21 mph83%29.97 "Hg10 mi
10:54 pm39 °FLight rain. Fog.22 mph89%29.98 "Hg4 mi
9:54 pm41 °FOvercast.18 mph86%29.96 "Hg10 mi
8:54 pm41 °FOvercast.17 mph86%29.96 "Hg10 mi
7:54 pm40 °FOvercast.17 mph93%29.92 "Hg10 mi
6:54 pm40 °FLight rain. Overcast.20 mph93%29.93 "Hg1 mi
6:21 pm40 °FLight rain. Overcast.16 mph97%29.93 "Hg1 mi
5:54 pm40 °FLight rain. Fog.20 mph100%29.89 "Hg1 mi
4:54 pm41 °FLight rain. Fog.17 mph96%29.87 "Hg1 mi
3:54 pm41 °FLight rain. Fog.17 mph100%29.86 "Hg1 mi
2:54 pm42 °FLight rain. Fog.15 mph100%29.84 "Hg1 mi
2:13 pm43 °FLight rain. Fog.20 mph97%29.82 "Hg2 mi
2:04 pm44 °FFog.18 mph93%29.82 "Hg2 mi
Weather by CustomWeather, © 2017

See weather overviewHow to use our weather pages